Overview Statistics Trail Chart Weather Telemetry Raw packets
 

This is the latest recevied weather packets stored in our database for station/object KD7AWQ. If no packets are shown the sender has not sent any weather packets the latest 10 day(s).

<< 19 20 21 22 23 24 25 >>
Time Temp. Humidity Pressure Rain* Wind** Luminosity Snow
1788312114 27.78° C 37% 1186.5 hPa 0 mm - 25 W/m² -
1788311809 27.78° C 36% 1186.5 hPa 0 mm - 29 W/m² -
1788311509 28.89° C 35% 1186.5 hPa 0 mm - 33 W/m² -
1788311208 29.44° C 33% 1186.6 hPa 0 mm - 56 W/m² -
1788310904 29.44° C 34% 1186.4 hPa 0 mm - 69 W/m² -
1788310602 30° C 32% 1186.5 hPa 0 mm - 81 W/m² -
1788310298 30° C 32% 1186.7 hPa 0 mm - 95 W/m² -
1788309997 29.44° C 34% 1186.7 hPa 0 mm - 114 W/m² -
1788309692 29.44° C 34% 1186.6 hPa 0 mm - 130 W/m² -
1788309388 28.89° C 34% 1186.9 hPa 0 mm - 149 W/m² -
1788309083 28.89° C 36% 1186.9 hPa 0 mm - 167 W/m² -
1788308779 28.33° C 38% 1187 hPa 0 mm - 187 W/m² -
1788308474 28.33° C 37% 1186.9 hPa 0 mm - 208 W/m² -
1788308168 27.78° C 40% 1186.9 hPa 0 mm - 230 W/m² -
1788307863 27.78° C 38% 1186.9 hPa 0 mm - 258 W/m² -
1788307558 27.78° C 37% 1187 hPa 0 mm - 275 W/m² -
1788307254 27.78° C 39% 1187.1 hPa 0 mm - 296 W/m² -
1788306953 27.22° C 37% 1187.1 hPa 0 mm - 199 W/m² -
1788306649 27.22° C 36% 1187.3 hPa 0 mm - 369 W/m² -
1788306348 26.67° C 45% 1187.3 hPa 0 mm - 413 W/m² -
1788306043 25.56° C 47% 1187.3 hPa 0 mm - 447 W/m² -
1788305743 25.56° C 49% 1187.2 hPa 0 mm - 217 W/m² -
1788305439 25.56° C 52% 1187.2 hPa 1.27 mm - 568 W/m² -
1788305134 25.56° C 47% 1187.2 hPa 3.05 mm - 528 W/m² -
1788304829 23.89° C 50% 1187.3 hPa 6.1 mm - 551 W/m² -

* Rain latest hour (hover to see other rain measurements)
** Current wind speed in m/s (hover to see current wind gust speed)